#timestamp,LO_Frequency,Hit,StdDev 
1681686015.5,286047001.2,N
1681686035.4,286046998.3,N
1681686055.2,286047001.2,N
1681686075.1,286047001.0,N
1681686076.0,286047001.0,N
1681686095.8,286047000.0,N
1681686115.6,286047002.3,N
1681686135.5,286047002.0,N
1681686155.3,286047002.3,N
1681686175.2,286046999.8,N
1681686195.9,286047002.8,N
1681686215.7,286047002.2,N
1681686235.6,286047002.4,N
1681686255.4,286047002.7,N
1681686275.2,286047002.8,N
1681686295.1,286047002.3,N
1681686296.0,286047002.3,N
1681686315.8,286047001.6,N
1681686335.7,286047001.8,N
1681686355.5,286047001.6,N
1681686375.3,286047001.4,N
1681686395.2,286047004.3,Y
1681686415.0,286047002.5,P
1681686415.9,286047002.5,P
1681686435.8,286047000.5,N
1681686455.6,286047000.5,N
1681686475.4,286047000.8,N
1681686495.3,286046999.8,N
1681686515.1,286046998.1,N
1681686535.9,286046999.8,N
1681686555.7,286047000.1,N
1681686575.5,286047002.8,N
1681686595.4,286047002.7,N
1681686615.2,286047004.0,N
1681686635.0,286047001.6,N
1681686635.9,286047001.6,N
1681686655.8,286047001.3,N
1681686675.6,286047001.9,N
1681686695.5,286047001.8,N
1681686715.3,286047004.1,Y
1681686735.1,286047002.4,P
1681686755.9,286047002.4,P
1681686775.7,286047002.1,P
1681686795.6,286047002.0,Y
1681686815.4,286046998.9,P
1681686835.2,286046998.5,N
1681686855.1,286047001.1,N
1681686856.0,286047001.1,N
1681686875.8,286047001.1,N
1681686895.6,286046998.6,N
1681686915.5,286046999.1,N
1681686935.3,286046999.4,N
1681686955.2,286047000.2,N
1681686975.0,286047000.6,N
1681686975.9,286047000.6,N
1681686995.7,286046998.2,N
1681687015.6,286047001.0,N
1681687035.4,286046998.6,N
1681687055.3,286046996.5,N
1681687075.1,286046999.3,N
1681687076.0,286046999.3,N
1681687095.8,286046999.4,N
1681687115.7,286046999.6,N
1681687135.5,286046996.5,N
1681687155.4,286046996.8,N
1681687175.2,286046997.0,N
1681687195.0,286046999.0,N
1681687195.9,286046999.0,N
1681687215.8,286046999.0,N
1681687235.6,286046998.4,N
1681687255.5,286047001.2,N
1681687275.3,286047000.7,N
1681687295.1,286047000.8,N
1681687315.9,286047002.5,N
1681687335.7,286047000.1,N
1681687355.5,286046999.9,N
1681687375.4,286047000.6,N
1681687395.2,286047001.0,N
1681687415.1,286047000.1,N
1681687416.0,286047000.1,N
1681687435.8,286047002.7,N
1681687455.6,286047002.4,N
1681687475.5,286047002.8,N
1681687495.3,286047001.7,N
1681687515.2,286047000.0,N
1681687535.9,286046998.7,N
1681687555.7,286046998.9,N
1681687575.6,286046998.4,N
1681687595.4,286046998.4,N
1681687615.2,286046999.9,N
1681687635.1,286046999.7,N
1681687636.0,286046999.7,N
1681687655.8,286047004.4,N
1681687675.7,286047001.9,N
1681687695.5,286047002.1,N
1681687715.3,286047000.7,N
1681687735.2,286046998.5,N
1681687755.0,286046998.1,N
1681687755.9,286046998.1,N
1681687775.8,286046998.3,N
1681687795.6,286046998.2,N
1681687815.4,286047000.7,N
1681687835.3,286047002.8,N
1681687855.1,286047002.8,N
1681687875.8,286047000.4,N
1681687895.7,286046999.8,N
1681687915.5,286047000.1,N
1681687935.4,286046999.9,N
1681687955.2,286046999.8,N
1681687975.0,286047002.4,N
1681687975.9,286047002.4,N
1681687995.8,286047001.5,N
1681688015.6,286046999.7,N
1681688035.4,286047001.2,N
1681688055.3,286046998.9,N
1681688075.1,286046999.3,N
1681688095.9,286046998.6,N
1681688115.7,286046998.7,N
1681688135.5,286046998.8,N
1681688155.0,286046998.4,N
1681688155.9,286046998.4,N
1681688175.8,286046998.1,N
1681688195.6,286046999.7,N
1681688215.5,286047000.3,N
1681688235.3,286047001.1,N
1681688255.1,286047000.4,N
1681688275.9,286047000.5,N
1681688295.7,286047000.4,N
1681688315.5,286047000.9,N
1681688335.4,286047000.5,N
1681688355.2,286047001.1,N
1681688375.1,286047002.8,N
1681688376.0,286047002.8,N
1681688395.8,286047001.0,N
1681688415.6,286046998.6,N
1681688435.5,286046999.5,N
1681688455.3,286046997.1,N
1681688475.1,286046999.2,N
1681688495.9,286046998.3,N
1681688515.7,286047001.1,N
1681688535.6,286047001.0,N
1681688555.4,286047001.0,N
1681688575.2,286047000.0,N
1681688595.1,286047001.0,N
1681688596.0,286047001.0,N
1681688615.8,286046998.7,N
1681688635.7,286046998.5,N
1681688655.5,286047000.9,N
1681688675.3,286047000.0,N
1681688695.2,286047000.1,N
1681688715.0,286047000.9,N
1681688715.9,286047000.9,N
1681688735.8,286047000.9,N
1681688755.6,286047002.3,N
1681688775.4,286046999.9,N
1681688795.3,286047000.5,N
1681688815.1,286047000.4,N
1681688835.8,286047000.3,N
1681688855.7,286047000.2,N
1681688875.5,286047002.8,N
1681688895.4,286046999.9,N
1681688915.2,286047002.6,N
1681688935.0,286047003.9,N
1681688935.9,286047003.9,N
1681688955.8,286047001.9,N
1681688975.6,286047004.4,N
1681688995.5,286047001.6,N
1681689015.3,286047004.4,N
1681689035.1,286047002.2,N
1681689055.9,286047002.2,N
1681689075.7,286047000.6,N
1681689095.6,286047000.4,N
1681689115.4,286046999.7,N
1681689135.2,286047000.6,N
1681689155.1,286047000.5,N
1681689156.0,286047000.5,N
1681689175.8,286047000.2,N
1681689195.6,286047000.1,N
1681689215.5,286047002.3,N
1681689235.3,286047003.8,N
1681689255.2,286047003.7,N
1681689275.9,286047003.1,N
1681689295.7,286047001.6,N
1681689315.6,286047000.1,N
1681689335.4,286046998.1,N
1681689355.2,286046998.6,N
1681689375.1,286046998.6,N
1681689376.0,286046998.6,N
1681689395.8,286046999.8,N
1681689415.7,286047002.6,N
1681689435.5,286047000.4,N
1681689455.3,286047000.2,N
1681689475.2,286046999.9,N
1681689495.9,286047000.2,N
1681689515.7,286047000.1,N
1681689535.6,286047002.2,N
1681689555.4,286047000.2,N
1681689575.3,286046999.9,N
1681689595.1,286047001.2,N
1681689596.0,286047001.2,N
